Doha, Qatar

9:47 PM +03 on May 25, 2017 (GMT +0300)
Doha International

Weather History for OTBD - July, 2012

Change the Weather History Date:

Tuesday, July 17, 2012

  Actual Average Record
Temperature  
Mean Temperature 100 °F -  
Max Temperature 113 °F 106 °F 117 °F (2015)
Min Temperature 88 °F 84 °F 82 °F (2003)
Cooling Degree Days 36    
Growing Degree Days 50 (Base 50)    
Moisture  
Dew Point 78 °F    
Average Humidity 58    
Maximum Humidity 84    
Minimum Humidity 14    
Precipitation  
Precipitation 0.00 in 0.00 in - ()
Sea Level Pressure  
Sea Level Pressure 29.47 in    
Wind  
Wind Speed 7 mph ()    
Max Wind Speed 16 mph    
Max Gust Speed -    
Visibility 4.6 miles    
Events      
Averages and records for this station are not official NWS values.
T = Trace of Precipitation, MM = Missing Value Source: Averaged Metar Reports

Daily Weather History Graph

Daily Weather History Graph

Search for Another Location

Airport or City:

Trip Planner

Search our weather history database for the weather conditions in past years. The results will help you decide how hot, cold, wet, or windy it might be!

Date:

Astronomy

Jul. 17, 2012 Rise Set
Actual Time 4:53 AM +03 6:25 PM +03
Civil Twilight 4:28 AM +03 6:51 PM +03
Nautical Twilight 3:58 AM +03 7:21 PM +03
Astronomical Twilight 3:26 AM +03 7:52 PM +03
Moon 3:09 AM +03 (7/17) 4:59 PM +03 (7/17)
Length of Visible Light 14h 22m
Length of Day
13h 31m
Waning Crescent, 3% of the Moon is Illuminated
Jul 17
Waning Crescent
Jul 19
New
Jul 26
First Quarter
Aug 2
Full
Aug 9
Last Quarter

Hourly Weather History & Observations

Time (+03) Temp. Heat Index Dew Point Humidity Pressure Visibility Wind Dir Wind Speed Gust Speed Precip Events Conditions
12:00 AM 93.2 °F 117.1 °F 82.4 °F 71% 29.44 in - Calm Calm - N/A   Clear
12:30 AM 93.2 °F 117.1 °F 82.4 °F 71% 29.44 in - North 3.5 mph - N/A   Clear
1:00 AM 91.4 °F 114.3 °F 82.4 °F 75% 29.44 in - Variable 2.3 mph - N/A   Clear
1:30 AM 91.4 °F 114.3 °F 82.4 °F 75% 29.44 in - Variable 2.3 mph - N/A   Clear
2:00 AM 91.4 °F 114.3 °F 82.4 °F 75% 29.44 in - Variable 2.3 mph - N/A   Clear
2:30 AM 93.2 °F 117.1 °F 82.4 °F 71% 29.44 in - Variable 2.3 mph - N/A   Clear
3:00 AM 91.4 °F 117.8 °F 84.2 °F 79% 29.44 in - Variable 1.2 mph - N/A   Clear
3:30 AM 91.4 °F 114.3 °F 82.4 °F 75% 29.44 in - Variable 2.3 mph - N/A   Clear
4:00 AM 91.4 °F 114.3 °F 82.4 °F 75% 29.44 in - Variable 2.3 mph - N/A   Clear
4:30 AM 91.4 °F 111.0 °F 80.6 °F 71% 29.47 in - East 3.5 mph - N/A   Clear
5:00 AM 91.4 °F 111.0 °F 80.6 °F 71% 29.47 in - Variable 2.3 mph - N/A   Clear
5:30 AM 91.4 °F 111.0 °F 80.6 °F 71% 29.47 in - ESE 4.6 mph - N/A   Clear
6:00 AM 93.2 °F 110.2 °F 78.8 °F 63% 29.47 in - SE 11.5 mph - N/A   Clear
6:30 AM 93.2 °F 113.6 °F 80.6 °F 67% 29.50 in 5.6 mi SE 8.1 mph - N/A   Unknown
7:00 AM 95.0 °F 119.6 °F 82.4 °F 67% 29.50 in 5.6 mi SSE 11.5 mph - N/A   Unknown
7:30 AM 95.0 °F 123.7 °F 84.2 °F 71% 29.50 in 5.6 mi SSE 12.7 mph - N/A   Unknown
8:00 AM 96.8 °F 126.0 °F 84.2 °F 67% 29.50 in 5.6 mi SSE 11.5 mph - N/A   Unknown
8:30 AM 100.4 °F 111.9 °F 73.4 °F 42% 29.53 in 5.6 mi South 11.5 mph - N/A   Unknown
9:00 AM 104 °F - 65 °F 20% 29.53 in 6 mi SSE 11.5 mph - -   Widespread Dust
9:00 AM 104.0 °F 107.4 °F 64.4 °F 27% 29.50 in 5.6 mi SSE 11.5 mph - N/A   Unknown
9:30 AM 105.8 °F 105.5 °F 57.2 °F 20% 29.50 in 5.6 mi SSE 12.7 mph - N/A   Unknown
10:00 AM 107.6 °F 106.8 °F 55.4 °F 18% 29.50 in 5.6 mi SSE 15.0 mph - N/A   Unknown
10:30 AM 107.6 °F 107.5 °F 57.2 °F 19% 29.50 in - SSE 15.0 mph - N/A   Clear
11:00 AM 111.2 °F 112.1 °F 59.0 °F 18% 29.50 in - SE 15.0 mph - N/A   Clear
11:30 AM 109.4 °F 111.9 °F 60.8 °F 21% 29.47 in - SE 13.8 mph - N/A   Clear
12:00 PM 113.0 °F 111.1 °F 53.6 °F 14% 29.47 in - SE 16.1 mph - N/A   Clear
12:30 PM 109.4 °F 125.8 °F 75.2 °F 34% 29.47 in 5.6 mi ESE 15.0 mph - N/A   Unknown
1:00 PM 105.8 °F 121.3 °F 75.2 °F 38% 29.47 in 5.6 mi East 13.8 mph - N/A   Unknown
1:30 PM 105.8 °F 121.3 °F 75.2 °F 38% 29.47 in 5.0 mi ESE 11.5 mph - N/A   Unknown
2:00 PM 105.8 °F 123.6 °F 77.0 °F 40% 29.47 in - ESE 11.5 mph - N/A   Unknown
2:30 PM 104.0 °F 124.4 °F 78.8 °F 45% 29.44 in 5.0 mi East 11.5 mph - N/A   Unknown
3:00 PM 105 °F - 77 °F 32% 29.46 in 5 mi East 10.4 mph - -   Widespread Dust
3:00 PM 104.0 °F 121.0 °F 77.0 °F 42% 29.44 in 5.0 mi East 10.4 mph - N/A   Unknown
3:30 PM 105.8 °F 119.1 °F 73.4 °F 36% 29.44 in 5.0 mi East 10.4 mph - N/A   Unknown
4:00 PM 107.6 °F 115.0 °F 68.0 °F 28% 29.42 in 5.0 mi East 10.4 mph - N/A   Unknown
4:30 PM 104.0 °F 124.4 °F 78.8 °F 45% 29.42 in 5.0 mi ENE 9.2 mph - N/A   Unknown
5:00 PM 100.4 °F 126.1 °F 82.4 °F 56% 29.42 in 4.3 mi NE 9.2 mph - N/A   Unknown
5:30 PM 98.6 °F 124.6 °F 82.4 °F 60% 29.42 in 4.3 mi NE 10.4 mph - N/A   Unknown
6:00 PM 96.8 °F 126.0 °F 84.2 °F 67% 29.44 in 3.1 mi NE 11.5 mph - N/A   Unknown
6:30 PM 95.0 °F 133.8 °F 87.8 °F 80% 29.44 in 2.5 mi NE 11.5 mph - N/A   Haze
7:00 PM 95.0 °F 133.8 °F 87.8 °F 80% 29.44 in 2.5 mi NE 11.5 mph - N/A   Haze
7:30 PM 93.2 °F 130.3 °F 87.8 °F 84% 29.47 in 2.5 mi NE 10.4 mph - N/A   Haze
8:00 PM 93.2 °F 130.3 °F 87.8 °F 84% 29.47 in 2.5 mi NE 9.2 mph - N/A   Haze
8:30 PM 93.2 °F 130.3 °F 87.8 °F 84% 29.47 in 3.7 mi ENE 8.1 mph - N/A   Unknown
9:00 PM 93 °F - 88 °F 81% 29.49 in 4 mi ENE 8.1 mph - -   Haze
9:00 PM 93.2 °F 130.3 °F 87.8 °F 84% 29.47 in 3.7 mi ENE 8.1 mph - N/A   Unknown
9:30 PM 93.2 °F 124.9 °F 86.0 °F 79% 29.47 in 3.7 mi East 8.1 mph - N/A   Unknown
10:00 PM 93.2 °F 124.9 °F 86.0 °F 79% 29.47 in 3.7 mi East 9.2 mph - N/A   Unknown
10:30 PM 93.2 °F 120.9 °F 84.2 °F 75% 29.47 in 4.3 mi East 8.1 mph - N/A   Unknown
11:00 PM 93.2 °F 124.9 °F 86.0 °F 79% 29.47 in 4.3 mi East 8.1 mph - N/A   Unknown
11:30 PM 93.2 °F 124.9 °F 86.0 °F 79% 29.47 in 4.3 mi East 8.1 mph - N/A   Unknown